Tracking 19574 objects as of 16-Feb-2019
HD Live streaming from Space Station
objects crossing your sky now

KOMPSAT

Track KOMPSAT now!
10-day predictions
KOMPSAT is classified as:


NORAD ID: 26032
Int'l Code: 1999-070A
Perigee: 667.2 km
Apogee: 674.4 km
Inclination: 98.0 °
Period: 98.0 minutes
Semi major axis: 7041 km
RCS: 2.132 m2 (large)
Launch date: December 21, 1999
Source: South Korea (SKOR)
Launch site: AIR FORCE WESTERN TEST RANGE (AFWTR)

Digital cartography of Korea and status of marine biology; satellite also released 3 dozen capsules of cremated remains.
aabbcc
Your satellite tracking list
Your tracking list is empty




NASA's NSSDC Master Catalog

Two Line Element Set (TLE):
1 26032U 99070A   19046.98755788  .00000076  00000-0  21018-4 0  9994
2 26032  97.9514 183.5253 0005103 132.3299 227.8331 14.69200332 25301
Source of the keplerian elements: AFSPC